Погода в Мажейкяе

Литва     56°18′12″N   22°20′16″E
темп.,
°C
ветер,
м/с
пор.,
м/с
влажн.,
%
обл.,
%
осадки,
мм/ч
давл.,
гПа
погр.,
м
20 апреля, вт
вт2000:00+7всв336448 0.0 102135
03:00+6всв227015 0.0 102028
06:00+6всв2270100 0.0 101912
09:00+10всв236163 0.0 1018207
12:00+14св234784 0.0 1016906
15:00+15св2339100 0.0 10142188
18:00+14ссв124294 0.0 10121775
21:00+10св236096 0.1 101261
21 апреля, ср
ср2100:00+7в227897 0.0 101126
03:00+6вюв118291 0.0 101010
06:00+5зюз11869 0.0 100911
09:00+9зсз226942 0.0 1008289
12:00+13з34455 0.0 10071350
15:00+14з67382 0.0 10061743
18:00+12зюз68485 0.0 10061033
21:00+7юз4107351 0.0 1006350
22 апреля, чт
чт2200:00+5юз5118517 0.0 1005399
03:00+4ююз511855 0.0 1005456
06:00+3юз613755 0.0 1005831
09:00+4ююз81273100 0.0 10041200
12:00+5ююз101576100 0.4 10041512
15:00+6юз10146674 1.1 10051571
18:00+4юз8127784 0.2 10061084
21:00+2юз61088100 0.4 1007747
23 апреля, пт
пт2300:00+2ююз5118164 0.0 1006574
03:00+2юз51093100 0.0 1006586
06:00+2зюз489396 0.2 1005689
09:00+3з5991100 0.4 1007672
12:00+4з7975100 0.4 10081193
15:00+3з71083100 1.1 1011976
18:00+3з71291100 0.7 1011962
21:00+2зсз61085100 1.4 1013894
24 апреля, сб
сб2400:00+1з5109698 0.1 1013700
03:00+1зсз5997100 0.3 1013778
06:00+1зсз61197100 0.1 1013709
09:00+2зсз6119597 0.3 1013714
12:00+4сз7973100 0.6 10141290
15:00+4зсз687099 0.9 10141333
18:00+4зсз796781 0.5 10141430
21:00+1зсз71187100 0.6 1013824